Location: Wildlife_Club
(35.6000°N, 81.4330°W)
Time: 08:15:44
(UTC-04:00)

Vanguard 2 Rocket - Pass Details

Date: 23 June 2019
Orbit: 554 x 3326 km, 32.9° (Epoch: 21 July)

Event Time Altitude Azimuth Distance (km) Brightness Sun altitude
Rises 05:26:45 0° 281° (W) 6,164 10.7 -8.3°
Reaches altitude 10° 05:30:57 10° 273° (W) 5,477 10.4 -7.6°
Maximum altitude 05:45:49 35° 216° (SW) 4,440 9.9 -5.2°
Drops below altitude 10° 06:02:41 10° 160° (SSE) 6,125 11.0 -2.3°
Sets 06:07:51 0° 151° (SSE) 6,940 11.4 -1.4°
